Regional Weather Roundup
Issued by NWS Northern Indiana

Home | Current Version | Previous Version | Text Only | Print | Product List | Glossary Off
Versions: 1 2 3 4 5 6 7 8 9 10 11 12 13 14 15 16 17 18 19 20 21 22 23 24 25 26 27 28 29 30 31 32 33 34 35 36 37 38 39 40 41 42 43 44 45 46 47 48 49 50

723
ASUS43 KIWX 212210
RWRIWX

KIWX WEATHER ROUNDUP
NATIONAL WEATHER SERVICE NORTHERN INDIANA
600 PM EDT MON AUG 21 2017

NOTE: "FAIR" INDICATES FEW OR NO CLOUDS BELOW 12,000 FEET WITH NO
SIGNIFICANT WEATHER AND/OR OBSTRUCTIONS TO VISIBILITY.

* THESE STATIONS ARE NOT UNDER NWS QUALITY CONTROL. THEY ALSO MAY NOT
  REPORT WEATHER SUCH AS PRECIPITATION OR FOG.

INZ001>027-212300-
NORTHERN INDIANA

CITY           SKY/WX    TMP DP  RH WIND       PRES   REMARKS
GARY*          PTSUNNY   86  70  58 SE15      29.99F
VALPARAISO     SUNNY     85  72  65 S9        30.00F
MICHIGAN CITY* MOSUNNY   82  70  65 S8        29.99F
LAPORTE*       MOSUNNY   82  71  68 S8        30.01F
KNOX*          CLOUDY    81  70  69 SE10      30.00F
SOUTH BEND     CLOUDY    84  71  65 SW10      30.00F
ELKHART*       CLOUDY    84  68  58 SW6       30.00F
GOSHEN         MOSUNNY   83  69  62 S8        30.01F
MONTICELLO*    SUNNY     84  71  65 S9        30.02R
LOGANSPORT*    SUNNY     82  72  69 S10       30.04S
ROCHESTER*     CLOUDY    88  70  55 S7        30.03S
WARSAW*        MOSUNNY   81  68  65 S3        30.02F
AUBURN*        PTSUNNY   84  66  54 SW7       30.04F
FORT WAYNE     PTSUNNY   85  70  60 S8        30.05S
HUNTINGTON*    PTSUNNY   83  73  69 SW6       30.04S
PERU/GRISSOM   MOSUNNY   84  74  73 S9        30.03F
MARION*        SUNNY     81  66  61 S8        30.08S

$$
INZ028>050-212300-
CENTRAL INDIANA

CITY           SKY/WX    TMP DP  RH WIND       PRES   REMARKS
LAFAYETTE      SUNNY     84  71  65 S9        30.03S
KOKOMO*        SUNNY     83  76  79 S12       30.06S
MUNCIE*        CLOUDY    82  68  62 S8        30.09R
INDIANAPOLIS   PTSUNNY   78  68  71 S9        30.08F

$$
MIZ043>046-050>051-056>058-064>065-071>073-077>080-212300-
SOUTHWEST LOWER MICHIGAN

CITY           SKY/WX    TMP DP  RH WIND       PRES   REMARKS
BATTLE CREEK   CLOUDY    83  70  64 SW7       30.01F
BENTON HARBOR  CLOUDY    84  70  62 S8        29.98F
COLDWATER*     CLOUDY    83  65  53 SW6       30.01F
HILLSDALE*     CLOUDY    81  68  65 SW9       30.03F
HOLLAND        MOSUNNY   79  72  79 S9        29.97F
GRAND RAPIDS   CLOUDY    82  72  71 S12       29.98F
KALAMAZOO      MOSUNNY   84  63  49 SW6       30.00F
STURGIS*       CLOUDY    83  69  61 S6        30.00F
THREE RIVERS*  FAIR      84  65  52 SW3       30.00F

$$
OHZ001>008-015>018-024>025-212300-
NORTHWEST OHIO

CITY           SKY/WX    TMP DP  RH WIND       PRES   REMARKS
WAUSEON*       FAIR      86  68  54 SW12      30.03S
DEFIANCE       MOSUNNY   85  69  58 SW6       30.03F
FINDLAY        SUNNY     84  72  67 S14       30.05F
TOLEDO EXPRESS CLOUDY    86  71  60 SW9       30.02F
TOLEDO METCALF MOSUNNY   85  74  69 S17       30.03F
LIMA           SUNNY     83  73  72 S9        30.08F

$$
AND FOR LAKE MICHIGAN COASTAL AND OPEN LAKE BUOY OBSERVATIONS

STATION/POSITION TEMP    WIND        PRES    VSBY  WAVE
                 AIR SEA DIR/SP/G                  HT/PER
                 (F)     (DEG/KT/KT) (MB)    (MI)  (FT/S)
CALUMET HARBOR    80      90/  8/ 10 1014.5F
MICHIGAN CITY     83     140/  7/  9   N/A
BURNS HARBOR      85     140/  8/ 16 1015.2F
SAINT JOSEPH      85     210/  5/  9 1015.2
SOUTH LAKE BUOY   73 72  160/ 12/ 12 1014.4F         1/ 3
4 MI NW BRIDGMAN  77 76  240/  2/  4 1014.7          1
MICHIGAN CITY     78 76  140/  2/  4   N/A           1

$$
&&




USA.gov is the U.S. government's official web portal to all federal, state and local government web resources and services.